Time,TemperatureF,DewpointF,PressureIn,WindDirection,WindDirectionDegrees,WindSpeedMPH,WindSpeedGustMPH,Humidity,HourlyPrecipIn,Conditions,Clouds,dailyrainin,SoftwareType,DateUTC
2013-04-20 00:02:00,28.0,15.0,-100.00,NNW,340,7.0,16.0,56,-99.99,,,-99.99,,2013-04-20 05:02:00,
2013-04-20 00:43:00,27.0,13.0,-100.00,NNW,340,5.0,11.0,56,-99.99,,,-99.99,,2013-04-20 05:43:00,
2013-04-20 00:52:00,27.0,13.0,-100.00,NNW,340,5.0,11.0,56,-99.99,,,-99.99,,2013-04-20 05:52:00,
2013-04-20 01:02:00,27.0,13.0,-100.00,NNW,340,5.0,11.0,56,-99.99,,,-99.99,,2013-04-20 06:02:00,
2013-04-20 01:12:00,27.0,13.0,-100.00,NNW,340,5.0,11.0,56,-99.99,,,-99.99,,2013-04-20 06:12:00,
2013-04-20 01:32:00,27.0,13.0,-100.00,WNW,300,5.0,12.0,57,-99.99,,,-99.99,,2013-04-20 06:32:00,
2013-04-20 01:42:00,27.0,13.0,-100.00,WNW,300,5.0,12.0,57,-99.99,,,-99.99,,2013-04-20 06:42:00,
2013-04-20 01:52:00,27.0,13.0,-100.00,WNW,300,5.0,12.0,57,-99.99,,,-99.99,,2013-04-20 06:52:00,
2013-04-20 02:01:00,27.0,13.0,-100.00,WNW,300,5.0,12.0,57,-99.99,,,-99.99,,2013-04-20 07:01:00,
2013-04-20 02:11:00,27.0,13.0,-100.00,WNW,300,5.0,12.0,57,-99.99,,,-99.99,,2013-04-20 07:11:00,
2013-04-20 02:32:00,26.0,13.0,-100.00,NW,310,5.0,9.0,58,-99.99,,,-99.99,,2013-04-20 07:32:00,
2013-04-20 02:42:00,26.0,13.0,-100.00,WNW,295,4.0,7.0,59,-99.99,,,-99.99,,2013-04-20 07:42:00,
2013-04-20 02:52:00,26.0,13.0,-100.00,WNW,295,4.0,7.0,59,-99.99,,,-99.99,,2013-04-20 07:52:00,
2013-04-20 03:02:00,26.0,13.0,-100.00,WNW,295,4.0,7.0,59,-99.99,,,-99.99,,2013-04-20 08:02:00,
2013-04-20 03:11:00,26.0,13.0,-100.00,WNW,295,4.0,7.0,59,-99.99,,,-99.99,,2013-04-20 08:11:00,
2013-04-20 03:32:00,25.0,13.0,-100.00,WNW,300,3.0,7.0,61,-99.99,,,-99.99,,2013-04-20 08:32:00,
2013-04-20 03:42:00,25.0,13.0,-100.00,WNW,300,3.0,7.0,61,-99.99,,,-99.99,,2013-04-20 08:42:00,
2013-04-20 03:52:00,25.0,13.0,-100.00,WNW,300,3.0,7.0,61,-99.99,,,-99.99,,2013-04-20 08:52:00,
2013-04-20 04:01:00,25.0,13.0,-100.00,WNW,300,3.0,7.0,61,-99.99,,,-99.99,,2013-04-20 09:01:00,
2013-04-20 04:11:00,22.0,14.0,-100.00,NW,305,1.0,5.0,71,-99.99,,,-99.99,,2013-04-20 09:11:00,
2013-04-20 04:33:00,22.0,14.0,-100.00,NW,305,1.0,5.0,71,-99.99,,,-99.99,,2013-04-20 09:33:00,
2013-04-20 04:43:00,22.0,14.0,-100.00,NW,305,1.0,5.0,71,-99.99,,,-99.99,,2013-04-20 09:43:00,
2013-04-20 04:53:00,22.0,14.0,-100.00,NW,305,1.0,5.0,71,-99.99,,,-99.99,,2013-04-20 09:53:00,
2013-04-20 05:02:00,22.0,14.0,-100.00,NW,305,1.0,5.0,71,-99.99,,,-99.99,,2013-04-20 10:02:00,
2013-04-20 05:33:00,23.0,16.0,-100.00,NW,315,3.0,5.0,76,-99.99,,,-99.99,,2013-04-20 10:33:00,
2013-04-20 05:42:00,23.0,16.0,-100.00,NW,315,3.0,5.0,76,-99.99,,,-99.99,,2013-04-20 10:42:00,
2013-04-20 05:53:00,23.0,16.0,-100.00,NW,315,3.0,5.0,76,-99.99,,,-99.99,,2013-04-20 10:53:00,
2013-04-20 06:02:00,23.0,16.0,-100.00,NW,315,3.0,5.0,76,-99.99,,,-99.99,,2013-04-20 11:02:00,
2013-04-20 06:12:00,23.0,16.0,-100.00,NW,315,3.0,5.0,76,-99.99,,,-99.99,,2013-04-20 11:12:00,
2013-04-20 06:32:00,21.0,14.0,-100.00,WNW,290,2.0,2.0,76,-99.99,,,-99.99,,2013-04-20 11:32:00,
2013-04-20 06:42:00,21.0,14.0,-100.00,WNW,290,2.0,2.0,76,-99.99,,,-99.99,,2013-04-20 11:42:00,
2013-04-20 06:53:00,21.0,14.0,-100.00,WNW,290,2.0,2.0,76,-99.99,,,-99.99,,2013-04-20 11:53:00,
2013-04-20 07:02:00,21.0,14.0,-100.00,WNW,290,2.0,2.0,76,-99.99,,,-99.99,,2013-04-20 12:02:00,
2013-04-20 07:11:00,21.0,14.0,-100.00,WNW,290,2.0,2.0,76,-99.99,,,-99.99,,2013-04-20 12:11:00,
2013-04-20 07:42:00,24.0,18.0,-100.00,West,265,2.0,4.0,81,-99.99,,,-99.99,,2013-04-20 12:42:00,
2013-04-20 07:52:00,24.0,18.0,-100.00,West,265,2.0,4.0,81,-99.99,,,-99.99,,2013-04-20 12:52:00,
2013-04-20 08:02:00,24.0,18.0,-100.00,West,265,2.0,4.0,81,-99.99,,,-99.99,,2013-04-20 13:02:00,
2013-04-20 08:11:00,24.0,18.0,-100.00,West,265,2.0,4.0,81,-99.99,,,-99.99,,2013-04-20 13:11:00,
2013-04-20 08:32:00,29.0,15.0,-100.00,WNW,285,7.0,13.0,55,-99.99,,,-99.99,,2013-04-20 13:32:00,
2013-04-20 08:42:00,29.0,15.0,-100.00,WNW,285,7.0,13.0,55,-99.99,,,-99.99,,2013-04-20 13:42:00,
2013-04-20 08:52:00,29.0,15.0,-100.00,WNW,285,7.0,13.0,55,-99.99,,,-99.99,,2013-04-20 13:52:00,
2013-04-20 09:02:00,29.0,15.0,-100.00,WNW,285,7.0,13.0,55,-99.99,,,-99.99,,2013-04-20 14:02:00,
2013-04-20 09:11:00,29.0,15.0,-100.00,WNW,285,7.0,13.0,55,-99.99,,,-99.99,,2013-04-20 14:11:00,
2013-04-20 09:32:00,31.0,9.0,-100.00,NW,320,9.0,16.0,38,-99.99,,,-99.99,,2013-04-20 14:32:00,
2013-04-20 09:42:00,31.0,9.0,-100.00,NW,320,9.0,16.0,38,-99.99,,,-99.99,,2013-04-20 14:42:00,
2013-04-20 09:52:00,31.0,9.0,-100.00,NW,320,9.0,16.0,38,-99.99,,,-99.99,,2013-04-20 14:52:00,
2013-04-20 10:01:00,31.0,9.0,-100.00,NW,320,9.0,16.0,38,-99.99,,,-99.99,,2013-04-20 15:01:00,
2013-04-20 10:11:00,31.0,9.0,-100.00,NW,320,9.0,16.0,38,-99.99,,,-99.99,,2013-04-20 15:11:00,
2013-04-20 10:12:00,34.0,7.0,-100.00,NW,305,6.0,21.0,32,-99.99,,,-99.99,,2013-04-20 15:12:00,
2013-04-20 10:34:00,34.0,7.0,-100.00,NW,305,6.0,21.0,32,-99.99,,,-99.99,,2013-04-20 15:34:00,
2013-04-20 10:43:00,34.0,7.0,-100.00,NW,305,6.0,21.0,32,-99.99,,,-99.99,,2013-04-20 15:43:00,
2013-04-20 10:53:00,34.0,7.0,-100.00,NW,305,6.0,21.0,32,-99.99,,,-99.99,,2013-04-20 15:53:00,
2013-04-20 11:03:00,34.0,7.0,-100.00,NW,305,6.0,21.0,32,-99.99,,,-99.99,,2013-04-20 16:03:00,
2013-04-20 11:12:00,35.0,5.0,-100.00,NW,320,9.0,21.0,28,-99.99,,,-99.99,,2013-04-20 16:12:00,
2013-04-20 11:33:00,35.0,5.0,-100.00,NW,320,9.0,21.0,28,-99.99,,,-99.99,,2013-04-20 16:33:00,
2013-04-20 11:42:00,35.0,5.0,-100.00,NW,320,9.0,21.0,28,-99.99,,,-99.99,,2013-04-20 16:42:00,
2013-04-20 11:53:00,35.0,5.0,-100.00,NW,320,9.0,21.0,28,-99.99,,,-99.99,,2013-04-20 16:53:00,
2013-04-20 12:02:00,35.0,5.0,-100.00,NW,320,9.0,21.0,28,-99.99,,,-99.99,,2013-04-20 17:02:00,
2013-04-20 12:33:00,38.0,6.0,-100.00,WNW,300,9.0,18.0,26,-99.99,,,-99.99,,2013-04-20 17:33:00,
2013-04-20 12:42:00,38.0,6.0,-100.00,WNW,300,9.0,18.0,26,-99.99,,,-99.99,,2013-04-20 17:42:00,
2013-04-20 12:52:00,38.0,6.0,-100.00,WNW,300,9.0,18.0,26,-99.99,,,-99.99,,2013-04-20 17:52:00,
2013-04-20 13:02:00,38.0,6.0,-100.00,WNW,300,9.0,18.0,26,-99.99,,,-99.99,,2013-04-20 18:02:00,
2013-04-20 13:12:00,38.0,6.0,-100.00,WNW,300,9.0,18.0,26,-99.99,,,-99.99,,2013-04-20 18:12:00,
2013-04-20 13:42:00,40.0,5.0,-100.00,NNW,335,6.0,15.0,23,-99.99,,,-99.99,,2013-04-20 18:42:00,
2013-04-20 13:52:00,40.0,5.0,-100.00,NNW,335,6.0,15.0,23,-99.99,,,-99.99,,2013-04-20 18:52:00,
2013-04-20 14:02:00,40.0,5.0,-100.00,NNW,335,6.0,15.0,23,-99.99,,,-99.99,,2013-04-20 19:02:00,
2013-04-20 14:11:00,40.0,5.0,-100.00,NNW,335,6.0,15.0,23,-99.99,,,-99.99,,2013-04-20 19:11:00,
2013-04-20 15:12:00,42.0,2.0,-100.00,North,0,11.0,15.0,19,-99.99,,,-99.99,,2013-04-20 20:12:00,
2013-04-20 15:32:00,42.0,2.0,-100.00,North,0,11.0,15.0,19,-99.99,,,-99.99,,2013-04-20 20:32:00,
2013-04-20 15:42:00,42.0,2.0,-100.00,North,0,11.0,15.0,19,-99.99,,,-99.99,,2013-04-20 20:42:00,
2013-04-20 15:52:00,42.0,2.0,-100.00,North,0,11.0,15.0,19,-99.99,,,-99.99,,2013-04-20 20:52:00,
2013-04-20 16:01:00,42.0,2.0,-100.00,North,0,11.0,15.0,19,-99.99,,,-99.99,,2013-04-20 21:01:00,
2013-04-20 16:12:00,44.0,3.0,-100.00,WNW,295,7.0,12.0,18,-99.99,,,-99.99,,2013-04-20 21:12:00,
2013-04-20 16:33:00,44.0,3.0,-100.00,WNW,295,7.0,12.0,18,-99.99,,,-99.99,,2013-04-20 21:33:00,
2013-04-20 16:43:00,44.0,3.0,-100.00,WNW,295,7.0,12.0,18,-99.99,,,-99.99,,2013-04-20 21:43:00,
2013-04-20 16:53:00,44.0,3.0,-100.00,WNW,295,7.0,12.0,18,-99.99,,,-99.99,,2013-04-20 21:53:00,
2013-04-20 17:02:00,44.0,3.0,-100.00,WNW,295,7.0,12.0,18,-99.99,,,-99.99,,2013-04-20 22:02:00,
2013-04-20 17:33:00,42.0,1.0,-100.00,NNW,345,8.0,14.0,18,-99.99,,,-99.99,,2013-04-20 22:33:00,
2013-04-20 17:42:00,42.0,1.0,-100.00,NNW,345,8.0,14.0,18,-99.99,,,-99.99,,2013-04-20 22:42:00,
2013-04-20 17:53:00,42.0,1.0,-100.00,NNW,345,8.0,14.0,18,-99.99,,,-99.99,,2013-04-20 22:53:00,
2013-04-20 18:02:00,42.0,1.0,-100.00,NNW,345,8.0,14.0,18,-99.99,,,-99.99,,2013-04-20 23:02:00,
2013-04-20 18:11:00,42.0,1.0,-100.00,NNW,345,8.0,14.0,18,-99.99,,,-99.99,,2013-04-20 23:11:00,
2013-04-20 18:32:00,43.0,3.0,-100.00,North,0,3.0,9.0,19,-99.99,,,-99.99,,2013-04-20 23:32:00,
2013-04-20 18:42:00,43.0,3.0,-100.00,North,0,3.0,9.0,19,-99.99,,,-99.99,,2013-04-20 23:42:00,
2013-04-20 18:53:00,43.0,3.0,-100.00,North,0,3.0,9.0,19,-99.99,,,-99.99,,2013-04-20 23:53:00,
2013-04-20 19:01:00,43.0,3.0,-100.00,North,0,3.0,9.0,19,-99.99,,,-99.99,,2013-04-21 00:01:00,
2013-04-20 19:11:00,43.0,3.0,-100.00,North,0,3.0,9.0,19,-99.99,,,-99.99,,2013-04-21 00:11:00,
2013-04-20 19:42:00,39.0,4.0,-100.00,North,0,2.0,6.0,22,-99.99,,,-99.99,,2013-04-21 00:42:00,
2013-04-20 19:52:00,39.0,4.0,-100.00,North,0,2.0,6.0,22,-99.99,,,-99.99,,2013-04-21 00:52:00,
2013-04-20 20:01:00,39.0,4.0,-100.00,North,0,2.0,6.0,22,-99.99,,,-99.99,,2013-04-21 01:01:00,
2013-04-20 20:12:00,39.0,4.0,-100.00,North,0,2.0,6.0,22,-99.99,,,-99.99,,2013-04-21 01:12:00,
2013-04-20 20:32:00,30.0,6.0,-100.00,ENE,70,0.0,2.0,37,-99.99,,,-99.99,,2013-04-21 01:32:00,
2013-04-20 20:42:00,30.0,6.0,-100.00,ENE,70,0.0,2.0,37,-99.99,,,-99.99,,2013-04-21 01:42:00,
2013-04-20 20:52:00,30.0,6.0,-100.00,ENE,70,0.0,2.0,37,-99.99,,,-99.99,,2013-04-21 01:52:00,
2013-04-20 21:02:00,30.0,6.0,-100.00,ENE,70,0.0,2.0,37,-99.99,,,-99.99,,2013-04-21 02:02:00,
2013-04-20 21:11:00,30.0,6.0,-100.00,ENE,70,0.0,2.0,37,-99.99,,,-99.99,,2013-04-21 02:11:00,
2013-04-20 21:32:00,27.0,11.0,-100.00,SE,145,0.0,0.0,51,-99.99,,,-99.99,,2013-04-21 02:32:00,
2013-04-20 21:42:00,27.0,11.0,-100.00,SE,145,0.0,0.0,51,-99.99,,,-99.99,,2013-04-21 02:42:00,
2013-04-20 21:52:00,27.0,11.0,-100.00,SE,145,0.0,0.0,51,-99.99,,,-99.99,,2013-04-21 02:52:00,
2013-04-20 22:01:00,27.0,11.0,-100.00,SE,145,0.0,0.0,51,-99.99,,,-99.99,,2013-04-21 03:01:00,
2013-04-20 22:11:00,27.0,11.0,-100.00,SE,145,0.0,0.0,51,-99.99,,,-99.99,,2013-04-21 03:11:00,
2013-04-20 22:12:00,25.0,13.0,-100.00,North,10,0.0,1.0,59,-99.99,,,-99.99,,2013-04-21 03:12:00,
2013-04-20 22:33:00,25.0,13.0,-100.00,North,10,0.0,1.0,59,-99.99,,,-99.99,,2013-04-21 03:33:00,
2013-04-20 22:42:00,25.0,13.0,-100.00,North,10,0.0,1.0,59,-99.99,,,-99.99,,2013-04-21 03:42:00,
2013-04-20 22:52:00,25.0,13.0,-100.00,North,10,0.0,1.0,59,-99.99,,,-99.99,,2013-04-21 03:52:00,
2013-04-20 23:02:00,25.0,13.0,-100.00,North,10,0.0,1.0,59,-99.99,,,-99.99,,2013-04-21 04:02:00,
2013-04-20 23:10:00,24.0,15.0,-100.00,West,265,0.0,1.0,66,-99.99,,,-99.99,,2013-04-21 04:10:00,
2013-04-20 23:33:00,24.0,15.0,-100.00,West,265,0.0,1.0,66,-99.99,,,-99.99,,2013-04-21 04:33:00,
2013-04-20 23:42:00,24.0,15.0,-100.00,West,265,0.0,1.0,66,-99.99,,,-99.99,,2013-04-21 04:42:00,
2013-04-20 23:53:00,24.0,15.0,-100.00,West,265,0.0,1.0,66,-99.99,,,-99.99,,2013-04-21 04:53:00,